AirNav   Pilot Hours Calculator
 
 885 users online  

6M2 Horseshoe Bend Airport
Horseshoe Bend, Arkansas, USA

GOING TO HORSESHOE BEND?


FAA INFORMATION EFFECTIVE 02 JANUARY 2020

Location

FAA Identifier: 6M2
Lat/Long: 36-13-16.9010N 091-45-19.7060W
36-13.281683N 091-45.328433W
36.2213614,-91.7554739
(estimated)
Elevation: 781.8 ft. / 238 m (estimated)
Variation: 00E (2020)
From city: 1 mile NE of HORSESHOE BEND, AR
Time zone: UTC -6 (UTC -5 during Daylight Saving Time)
Zip code: 72512

Airport Operations

Airport use: Open to the public
Activation date: 08/1964
Control tower: no
ARTCC: MEMPHIS CENTER
FSS: JONESBORO FLIGHT SERVICE STATION
NOTAMs facility: JBR (NOTAM-D service available)
Attendance: UNATNDD
Wind indicator: lighted
Segmented circle: yes
Lights: DUSK-DAWN. ACTVT MIRL RY 13/31 - CTAF.
Beacon: white-green (lighted land airport)
Operates sunset to sunrise.

Airport Communications

CTAF/UNICOM: 122.8
  • APCH/DEP SVC PRVDD BY MEMPHIS ARTCC (ZME) ON 120.075/289.4 (WALNUT RIDGE RCAG).

Nearby radio navigation aids

VOR radial/distance  VOR name  Freq  Var
ARGr276/39.4WALNUT RIDGE VORTAC114.5004E

Airport Services

Fuel available: 100LL
SELF SERVE FUEL AVBL 24 HRS WITH CREDIT CARD.
Parking: hangars and tiedowns

Runway Information

Runway 13/31

Dimensions: 4502 x 60 ft. / 1372 x 18 m
Surface: asphalt, in good condition
Weight bearing capacity: 
Single wheel: 4.0
Runway edge lights: medium intensity
RUNWAY 13  RUNWAY 31
Latitude: 36-13.496693N36-13.066657N
Longitude: 091-45.701503W091-44.955412W
Elevation: 781.8 ft.777.4 ft.
Traffic pattern: leftleft
Runway heading: 125305
Displaced threshold: 994 ft.no
Markings: basic, in good conditionnonprecision, in good condition
Visual slope indicator: 2-light PAPI on left (3.00 degrees glide path)
Touchdown point: yes, no lightsyes, no lights
Obstructions: 100 ft. trees, 1200 ft. from runway, 10:1 slope to clear
TERRAIN RISES 681 FT BTN 200-1100 FT FM END OF RY.
30 ft. tree, 400 ft. from runway, 225 ft. right of centerline, 6:1 slope to clear

Airport Ownership and Management from official FAA records

Ownership: Publicly-owned
Owner: CITY OF HORSEHOE BEND
CITY HALL - 704 W COMMERCE
HORSESHOE BEND, AR 72512
Phone 870-670-5113
Manager: DOUGLAS WENDLING
704 W COMMERCE
HORSESHOE BEND, AR 72512
Phone 623-414-6337

Airport Operational Statistics

Aircraft based on the field: 3
Single engine airplanes: 3
    
Aircraft operations: avg 123/week *
55% transient general aviation
39% local general aviation
6% military
* for 12-month period ending 30 June 2017

Additional Remarks

RAPIDLY RISING TERRAIN WITH TREES ON FINAL APCH RY 13.
RECOMMEND TKOF RY 13 DUE TO RAPIDLY RISING TERRAIN NW OF ARPT.
DEER ON & INVOF ARPT.
PAY PHONE AVBL
FOR CD CTC MEMPHIS ARTCC AT 901-368-8453.

Instrument Procedures

NOTE: All procedures below are presented as PDF files. If you need a reader for these files, you should download the free Adobe Reader.

NOT FOR NAVIGATION. Please procure official charts for flight.
FAA instrument procedures published for use from 02 January 2020 at 0901Z to 30 January 2020 at 0900Z.

 
IAPs - Instrument Approach Procedures
RNAV (GPS)-A   download (146KB)
NOTE: Special Take-Off Minimums/Departure Procedures apply   download (210KB)

Other nearby airports with instrument procedures:

KCVK - Sharp County Regional Airport (10 nm E)
42A - Melbourne Municipal Airport - John E Miller Field (10 nm S)
7M2 - Mountain View Airport-Wilcox Memorial Field (27 nm SW)
KBVX - Batesville Regional Airport (30 nm S)
KBPK - Baxter County Airport (36 nm W)
 
Loc | Ops | Rwys | IFR | FBO | Links
Com | Nav | Svcs | Stats | Notes
Area around 6M2 (Horseshoe Bend Airport)
 
Road maps at: MapQuest Bing Google
 
Aerial photo
WARNING: Photo may not be current or correct
Aerial photo of 6M2 (Horseshoe Bend Airport)
Photo courtesy of the Arkansas Department of Aeronautics
Taken in the Spring of 2007

Do you have a better or more recent aerial photo of Horseshoe Bend Airport that you would like to share? If so, please send us your photo.

 
Sectional chart

 
Airport distance calculator
Flying to Horseshoe Bend Airport? Find the distance to fly.

From to 6M2

Sunrise and sunset
Times for 24-Jan-2020
 Local
(UTC-6)
 Zulu
(UTC)
Morning civil twilight06:4712:47
Sunrise07:1513:15
Sunset17:2423:24
Evening civil twilight17:5123:51

Current date and time
Zulu (UTC)  24-Jan-2020 12:21:01
Local (UTC-6)  24-Jan-2020 06:21:01
 
METAR
KBVX 
31nm S 
241156Z AUTO 27005KT 10SM OVC018 A2988 RMK AO2 SLPNO 60000 70018 53007 FZRANO $
KFLP 
35nm W 
241156Z AUTO 29010KT 10SM UP OVC016 03/01 A2988 RMK AO2 UPB55 SLP122 P0000 60001 70038 T00280011 10033 20022 53009
KBPK 
35nm W 
241153Z AUTO VRB06G15KT 10SM SCT008 BKN014 OVC036 02/02 A2985 RMK AO2 RAB03E46 SLP111 P0001 60008 70051 T00220022 10028 20022 53007 $
KUNO 
40nm N 
241203Z AUTO 28005KT 10SM SCT003 SCT007 OVC013 01/01 A2982 RMK AO2 T00110006
KARG 
41nm E 
241156Z AUTO 26003KT 5SM BR OVC004 03/03 A2986 RMK AO2 RAE51 SLP113 P0000 60002 70039 T00330028 10033 20022 55006
KM19 
45nm SE 
241156Z AUTO 21010KT 10SM BKN023 OVC100 03/03 A2988 RMK AO2 SLP118 60000 70045 T00330033 10033 20028 53002
TAF
KBPK 
35nm W 
241139Z 2412/2512 29008G15KT 6SM -RASN BR BKN007 OVC010 FM241300 29012G18KT 4SM -SN BR OVC007 FM241900 30012G18KT 6SM -SHSN BR SCT008 OVC015 FM242200 29009KT P6SM SCT015 OVC020
NOTAMs
Click for the latest NOTAMs
NOTAMs are issued by the DoD/FAA and will open in a separate window not controlled by AirNav.

 

 
 

FBO, Fuel Providers, and Aircraft Ground Support

  
 Business Name 
 
 Contact 
 
 Services / Description 
 
Fuel Prices
 
Comments
  
City of Horseshoe Bend 870-670-5113 Airport management, Aviation fuel, Aircraft parking (ramp or tiedown), Hangar leasing / sales, ...

More info about City of Horseshoe Bend
Phillips 66
100LL
SS $4.25 
 Updated 23-Jan-2020
 
   2 read write
SS=Self service
Update Fuel Prices
 

Where to Stay: Hotels, Motels, Resorts, B&Bs, Campgrounds

 The hotels featured here are reported to be very convenient to the Horseshoe Bend Airport. If your hotel/inn/B&B/resort is near the Horseshoe Bend Airport, provides convenient transportation, or is otherwise attractive to pilots, flight crews, and airport users, consider listing it here.
  
 Business Name 
 
 Contact 
 
 Services / Description 
 
Distance
 
Comments
  
 Cedar Glade Resort
870-670-5141
[web site]
[email]

Like us on facebook
Internet access, Restaurant, Lodging, Resort, Other business
 
Wireless Internet Access (WiFi)  
 
More info about Cedar Glade Resort
0.5 miles  
   write
Feature A Hotel
 

Would you like to see your business listed on this page?

 If your business provides an interesting product or service to pilots, flight crews, aircraft, or users of the Horseshoe Bend Airport, you should consider listing it here.  To start the listing process, click on the button below
 
Add a business
 

Other Pages about Horseshoe Bend Airport

Update a link
 
Copyright © AirNav, LLC. All rights reserved. Privacy Policy  Contact